IRIDIUM 49 [P] (25108 NORAD) Tracking and Keplerian Element Data

This shows tracking and keplerian element data for the satellite.

Feedback or suggestion? Click here.




ElementValue
Catalog25108
NameIRIDIUM 49 [P]
Epoch Orbit5519
Epoch Day44.38151829
Epoch Year2018
RAAN152.6916
Inclination86.359
Eccentricity0.0048274
Argument of Perigee278.8562
Mean Anonmoly80.6143
Mean Motion16.45745255
Decay Rate0.15890926
L11 25108U 97082E 18044.38151829 .15890926 -13830-5 16009-3 0 9996
L22 25108 86.3590 152.6916 0048274 278.8562 80.6143 16.45745255 55198

Live tracking and technical data element details for IRIDIUM 49 [P] (NORAD 25108). IRIDIUM 49 [P] can be tracked NOW for your location showing map with azimuth and elevation plus other details from your city location.

Track the satellite on the map from your city or location and see movement details for azimuth, elevation, latitude, longitude, range, height, and movement on the map or in text.







IsCatalogInMostPopularTable: catalog: 25108, numindb: 56
Update: records affected: 1



GetName: 25108 IRIDIUM 49 [P]

Hit Count: updated at: Sat, 15 Dec 2018 18:50:57 GMT